Location: Unspecified
(0.0000°N, 0.0000°E)
Time: 18:46:27
(UTC+00:00)

deb Briz - Pass Details

Date: 21 February 2026
Orbit: 1949 x 2166 km, 64.8° (Epoch: 6 March)

Event Time Altitude Azimuth Distance (km) Brightness Sun altitude
Rises 04:59:54 0° 338° (NNW) 5,581 ? -18.1°
Reaches altitude 10° 05:03:15 10° 338° (NNW) 4,603 ? -17.3°
Maximum altitude 05:15:25 88° 250° (WSW) 2,160 ? -14.3°
Drops below altitude 10° 05:27:49 10° 160° (SSE) 4,684 ? -11.3°
Sets 05:31:16 0° 159° (SSE) 5,683 ? -10.4°
